Regional Weather Roundup
Issued by NWS

Home | Current Version | Previous Version | Text Only | Print | Product List | Glossary Off
Versions: 1 2 3 4 5 6 7 8 9 10 11 12 13 14 15 16 17 18 19 20 21 22 23 24 25 26 27 28 29 30 31 32 33 34 35 36 37 38 39 40 41 42 43 44 45 46 47 48 49 50

000
ASUS44 KMEG 061300
RWRTN
TENNESSEE HOURLY STATE WEATHER ROUNDUP
NATIONAL WEATHER SERVICE MEMPHIS TN
700 AM CST SAT FEB 06 2016

TNZ002-004-019-021-049-052-054-088>092-061400-
WEST TENNESSEE

CITY           SKY/WX    TMP DP  RH WIND       PRES   REMARKS
MEMPHIS INTL   MOCLDY    35  25  66 CALM      30.38R
NWS MEMPHIS      N/A     31 N/A N/A MISG        N/A
JACKSON        CLEAR     25  23  92 CALM      30.38R
DYERSBURG      PTCLDY    30  27  86 CALM      30.39R
UNION CITY     CLEAR     25  23  93 CALM      30.36R
PARIS          CLEAR     25  19  80 CALM      30.36S
LEXINGTON      CLEAR     25  21  86 CALM      30.37R
$$

TNZ008-025-027-028-033-062-065-066-061400-
NORTH MIDDLE TENNESSEE

CITY           SKY/WX    TMP DP  RH WIND       PRES   REMARKS
NASHVILLE      PTCLDY    27  21  78 S3        30.39R
CLARKSVILLE    CLOUDY    26  23  88 SE3       30.37R
COOKEVILLE     CLEAR     21  19  93 CALM      30.36F
CROSSVILLE     CLEAR     27  20  75 CALM      30.35R
$$

TNZ061-075-076-078-094-096-097-061400-
SOUTH MIDDLE TENNESSEE

CITY           SKY/WX    TMP DP  RH WIND       PRES   REMARKS
TULLAHOMA      CLEAR     25  23  93 CALM      30.38R
WINCHESTER     CLEAR     25  23  93 CALM      30.39R
MCMINNVILLE    CLEAR     25  23  93 CALM      30.38R
COLUMBIA       CLEAR     25  25 100 CALM      30.37R
SHELBYVILLE    CLEAR     28  23  80 CALM      30.40R
$$

TNZ017-018-042-046-047-061400-
NORTHEAST TENNESSEE

CITY           SKY/WX    TMP DP  RH WIND       PRES   REMARKS
TRI CITIES     MOCLDY    23  20  88 CALM      30.39R
$$

TNZ012-013-036-069-073-074-061400-
CENTRAL EAST TENNESSEE

CITY           SKY/WX    TMP DP  RH WIND       PRES   REMARKS
KNOXVILLE      PTCLDY    28  20  71 E3        30.39S
OAK RIDGE      CLEAR     26  22  84 CALM      30.42R
GATLINBURG       N/A     21  18  86 E3        30.40S
$$

TNZ083-085-099-061400-
SOUTHEAST TENNESSEE

CITY           SKY/WX    TMP DP  RH WIND       PRES   REMARKS
CHATTANOOGA    CLOUDY    29  25  85 VRB3      30.41R
$$

SKY/WX REPORTED AS FAIR MEANS FEW OR NO CLOUDS BELOW
12 THOUSAND FEET.




USA.gov is the U.S. government's official web portal to all federal, state and local government web resources and services.